Location: ???????
(54.6339°N, 39.4245°E)
Time: 04:50:21
(UTC+00:00)

Cosmos 2056 Rocket - Pass Details

Date: 19 May 2025
Orbit: 739 x 796 km, 74.0° (Epoch: 19 June)

Event Time Altitude Azimuth Distance (km) Brightness Sun altitude
Rises 20:59:01 0° 333° (NNW) 3,294 8.1 -15.3°
Reaches altitude 10° 21:01:27 10° 335° (NNW) 2,354 7.2 -15.3°
Maximum altitude 21:06:48 73° 61° (ENE) 815 3.7 -15.4°
Enters shadow 21:10:41 18° 144° (SE) 1,794 4.9 -15.4°
